Tracking 18032 objects as of 25-March-2017
HD Live streaming from Space Station
objects crossing your sky now

TDRS 3

Track TDRS 3 now!
TDRS 3 is classified as:


NORAD ID: 19548
Int'l Code: 1988-091B
Perigee: 35,630.7 km
Apogee: 35,956.8 km
Inclination: 14.9 °
Period: 1,436.1 minutes
Semi major axis: 42164 km
RCS: 38.9601 m2 (large)
Launch date: September 29, 1988
Source: United States (US)
Launch site: AIR FORCE EASTERN TEST RANGE (AFETR)

Backup; still partially operational.
Your satellite tracking list
Your tracking list is empty





NASA's NSSDC Master Catalog

Two Line Element Set (TLE):
1 19548U 88091B   17082.50713829 -.00000300 +00000-0 +00000-0 0  9990
2 19548 014.8828 009.0262 0038666 312.0571 340.4788 01.00271668091585
Source of the keplerian elements: AFSPC